China Lake, CA

2:47 PM PDT on April 24, 2017 (GMT -0700)
China Lake NAWS

Weather History for KNID - April, 2014

Change the Weather History Date:

Friday, April 25, 2014

  Actual Average Record
Temperature  
Mean Temperature 64 °F -  
Max Temperature 73 °F 76 °F 89 °F (2001)
Min Temperature 52 °F 52 °F 42 °F (2008)
Degree Days  
Heating Degree Days 2    
Growing Degree Days 14 (Base 50)    
Moisture  
Dew Point 36 °F    
Average Humidity 35    
Maximum Humidity 51    
Minimum Humidity 24    
Precipitation  
Precipitation 0.00 in - - ()
Sea Level Pressure  
Sea Level Pressure 29.69 in    
Wind  
Wind Speed 18 mph (SW)    
Max Wind Speed 30 mph    
Max Gust Speed 47 mph    
Visibility 10 miles    
Events      
Averages and records for this station are not official NWS values.
T = Trace of Precipitation, MM = Missing Value Source: NWS Daily Summary

Daily Weather History Graph

Daily Weather History Graph

Search for Another Location

Airport or City:

Trip Planner

Search our weather history database for the weather conditions in past years. The results will help you decide how hot, cold, wet, or windy it might be!

Date:

Astronomy

Apr. 25, 2014 Rise Set
Actual Time 6:05 AM PDT 7:32 PM PDT
Civil Twilight 5:38 AM PDT 7:59 PM PDT
Nautical Twilight 5:06 AM PDT 8:31 PM PDT
Astronomical Twilight 4:32 AM PDT 9:05 PM PDT
Moon 3:48 AM PDT (4/25) 4:06 PM PDT (4/25)
Length of Visible Light 14h 20m
Length of Day
13h 27m
Waning Crescent, 14% of the Moon is Illuminated
Apr 25
Waning Crescent
Apr 28
New
May 6
First Quarter
May 14
Full
May 21
Last Quarter

Hourly Weather History & Observations

Time (PDT) Temp. Dew Point Humidity Pressure Visibility Wind Dir Wind Speed Gust Speed Precip Events Conditions
12:56 AM 64.9 °F 36.0 °F 34% 29.75 in 10.0 mi SSW 11.5 mph - N/A   Unknown
1:56 AM 64.9 °F 35.1 °F 33% 29.74 in 10.0 mi South 13.8 mph - N/A   Unknown
2:56 AM 64.9 °F 34.0 °F 32% 29.71 in 10.0 mi SW 17.3 mph 24.2 mph N/A   Unknown
3:56 AM 64.0 °F 34.0 °F 33% 29.71 in 10.0 mi SSW 15.0 mph 24.2 mph N/A   Unknown
4:56 AM 63.0 °F 35.1 °F 35% 29.70 in 10.0 mi SSW 15.0 mph 23.0 mph N/A   Unknown
5:56 AM 62.1 °F 36.0 °F 38% 29.70 in 10.0 mi SSW 19.6 mph 26.5 mph N/A   Unknown
6:56 AM 63.0 °F 36.0 °F 37% 29.71 in 10.0 mi SW 13.8 mph - N/A   Unknown
7:56 AM 66.9 °F 36.0 °F 32% 29.71 in 10.0 mi SW 17.3 mph 27.6 mph N/A   Unknown
8:56 AM 70.0 °F 34.0 °F 27% 29.72 in 10.0 mi South 17.3 mph 24.2 mph N/A   Unknown
9:56 AM 70.0 °F 34.0 °F 27% 29.73 in 10.0 mi WSW 17.3 mph 33.4 mph N/A   Unknown
10:56 AM 68.0 °F 35.1 °F 30% 29.75 in 10.0 mi SW 23.0 mph 35.7 mph N/A   Unknown
11:56 AM 69.1 °F 37.0 °F 31% 29.74 in 10.0 mi SW 21.9 mph 31.1 mph N/A   Unknown
12:56 PM 73.0 °F 35.1 °F 25% 29.72 in 10.0 mi SW 29.9 mph 47.2 mph N/A   Unknown
1:56 PM 73.0 °F 34.0 °F 24% 29.71 in 10.0 mi WSW 29.9 mph 38.0 mph N/A   Unknown
2:56 PM 73.0 °F 35.1 °F 25% 29.69 in 10.0 mi WSW 25.3 mph 39.1 mph N/A   Unknown
3:56 PM 70.0 °F 35.1 °F 28% 29.68 in 10.0 mi WSW 24.2 mph 35.7 mph N/A   Unknown
4:56 PM 69.1 °F 35.1 °F 29% 29.66 in 10.0 mi WSW 21.9 mph 29.9 mph N/A   Unknown
5:56 PM 64.0 °F 37.0 °F 37% 29.66 in 10.0 mi WSW 19.6 mph 25.3 mph N/A   Unknown
6:56 PM 63.0 °F 37.0 °F 38% 29.64 in 10.0 mi SW 13.8 mph 20.7 mph N/A   Unknown
7:56 PM 60.1 °F 39.0 °F 46% 29.64 in 10.0 mi WSW 16.1 mph 23.0 mph N/A   Unknown
8:56 PM 57.9 °F 37.9 °F 47% 29.65 in 10.0 mi SW 20.7 mph 25.3 mph N/A   Unknown
9:56 PM 55.9 °F 36.0 °F 47% 29.63 in 10.0 mi SSW 24.2 mph 31.1 mph N/A   Unknown
10:56 PM 54.0 °F 36.0 °F 51% 29.61 in 10.0 mi SSW 23.0 mph 28.8 mph N/A   Unknown
11:56 PM 52.0 °F 33.1 °F 49% 29.60 in 10.0 mi SW 23.0 mph 29.9 mph N/A   Unknown